Hourly Data Report for May 28, 2012

All times are specified in Local Standard Time (LST). Add 1 hour to adjust for Daylight Saving Time where and when it is observed.

LONDON A
ONTARIO

43°01'59.000" N
81°09'04.000" W
278.00 m
6144473
71623
YXU

Download Data

Hourly Data (May 2012)
Hourly Data Report for May 28, 2012
Temp Definition
°C
Dew Point Temp Definition
°C
Rel Hum Definition
%
Wind Dir Definition
10's deg

Wind Spd Definition
km/h
Visibility Definition
km
Stn Press Definition
kPa
Hmdx Definition


Wind Chill Definition


Weather Definition


TIME
00:00 Legend Double Dagger 17.6 16.1 91 17 11 10.0 98.18     LegendNANA
01:00 Legend Double Dagger 16.5 15.7 95 14 8 10.0 98.15     Clear
02:00 Legend Double Dagger 17.3 16.2 93 16 9 10.0 98.13     LegendNANA
03:00 Legend Double Dagger 16.6 16.0 96 8 10 10.0 98.09     LegendNANA
04:00 Legend Double Dagger 15.8 15.3 97 13 6 10.0 98.11     Clear
05:00 Legend Double Dagger 17.0 16.4 96 15 8 10.0 98.11     LegendNANA
06:00 Legend Double Dagger 18.1 17.6 97   0 10.0 98.14     LegendNANA
07:00 Legend Double Dagger 21.1 19.1 88 20 9 8.1 98.17 28   Haze
08:00 Legend Double Dagger 23.4 20.4 83 22 7 9.7 98.16 31   Haze
09:00 Legend Double Dagger 26.0 20.7 72 24 20 9.7 98.12 34   Haze
10:00 Legend Double Dagger 27.3 21.0 68 22 18 10.0 98.08 36   Mainly Clear
11:00 Legend Double Dagger 29.2 20.0 57 21 16 10.0 98.02 37   LegendNANA
12:00 Legend Double Dagger 30.4 20.8 56 24 17 10.0 97.96 39   LegendNANA
13:00 Legend Double Dagger 31.1 20.0 51 21 17 10.0 97.87 39   Mainly Clear
14:00 Legend Double Dagger 30.5 20.6 55 17 27 10.0 97.85 39   LegendNANA
15:00 Legend Double Dagger 30.3 20.7 56 19 27 10.0 97.80 38   LegendNANA
16:00 Legend Double Dagger 30.2 19.5 52 19 28 10.0 97.77 37   Mainly Clear
17:00 Legend Double Dagger 29.3 18.3 51 19 28 10.0 97.71 36   LegendNANA
18:00 Legend Double Dagger 29.0 18.7 53 19 23 10.0 97.65 36   LegendNANA
19:00 Legend Double Dagger 27.7 17.7 54 19 24 10.0 97.61 33   Mostly Cloudy
20:00 Legend Double Dagger 26.6 17.8 58 19 17 10.0 97.53 32   LegendNANA
21:00 Legend Double Dagger 25.7 17.8 61 21 22 10.0 97.59 32   LegendNANA
22:00 Legend Double Dagger 25.1 19.6 71 21 22 10.0 97.59 32   Mostly Cloudy
23:00 Legend Double Dagger 25.0 19.5 71 20 23 9.7 97.55 32   Haze

Notes on Data Quality.

Legend

  • E = Estimated
  • M = Missing
  • NA = Not Available
  • ‡ = Partner data that is not subject to review by the National Climate Archives
Date modified: